[[{"header":{"parameterUnit":"m.s-1","parameterCategory":1,"la1":30.2991,"la2":30.254,"lo1":-89.0895,"lo2":-89.0444,"dy":0.0017,"dx":0.0017,"nx":28,"ny":28,"refTime":"2024-04-11T09:00:00:Z","depth":0,"parameterNumber":2,"parameterNumberName":"U-component_of_WINDS"},"data":[0,0,0,0,0,0,0,0,0,0,0,0,0,0,0,0,0,0,0,0,0,0,0,0,0,0,0,0,0,0,0,0,0,0,0,0,0,0,0,0,0,0,0,0,0,0,0,0,0,0,0,0,0,0,0,0,0,0,-0.3463,-0.3463,0,-0.3494,-0.3495,-0.3495,-0.3472,-0.3471,-0.347,-0.3469,-0.3503,-0.3504,-0.3506,0,0,0,0,0,0,0,0,0,0,0,0,0,-0.3384,-0.3385,-0.3463,-0.3463,-0.3464,-0.3494,-0.3495,-0.3495,-0.3472,-0.3471,-0.347,-0.3469,-0.3502,-0.3504,-0.3506,0,0,0,0,0,0,0,0,0,0,0,0,0,-0.3417,-0.3386,-0.3463,-0.3456,-0.3456,-0.3494,-0.3495,-0.3495,-0.3473,-0.3471,-0.347,-0.3468,-0.3501,-0.3504,-0.3507,-0.3554,0,0,-0.3515,-0.3516,0,0,0,0,0,0,0,0,-0.3415,-0.342,-0.3456,-0.3456,-0.3456,-0.3478,-0.3479,-0.3515,-0.3473,-0.3466,-0.3469,-0.3467,-0.3496,-0.3499,-0.3508,-0.3556,-0.3557,-0.3515,-0.3517,-0.3518,-0.3519,0,0,0,0,0,0,0,-0.3413,-0.3419,-0.3475,-0.3457,-0.3457,-0.3452,-0.3455,-0.3486,-0.3489,-0.3467,-0.3465,-0.3469,-0.3495,-0.3505,-0.3509,-0.3558,-0.3515,-0.3518,-0.3519,-0.352,-0.3646,-0.3648,0,0,0,0,0,0,-0.3411,-0.3417,-0.3474,-0.3476,-0.3431,-0.3454,-0.3458,-0.3472,-0.3489,-0.349,-0.347,-0.3468,-0.3501,-0.3505,-0.351,-0.3567,-0.3518,-0.3521,-0.3522,-0.3645,-0.3647,-0.3648,0,0,0,0,0,0,-0.3409,-0.3416,-0.3473,-0.3446,-0.3453,-0.3457,-0.3474,-0.3474,-0.3484,-0.3491,-0.3492,-0.348,-0.35,-0.3506,-0.3543,-0.3568,-0.3522,-0.3524,-0.3643,-0.3645,-0.3648,-0.3682,0,0,0,0,0,0,-0.3407,-0.3416,-0.3434,-0.3447,-0.3454,-0.3506,-0.3475,-0.3475,-0.3489,-0.3486,-0.3501,-0.3502,-0.35,-0.3539,-0.3546,-0.3571,-0.3527,-0.364,-0.3644,-0.3647,-0.3679,-0.3685,-0.3691,0,0,0,0,0,-0.3405,-0.3443,-0.3435,-0.3442,-0.3477,-0.3507,-0.3512,-0.3508,-0.3491,-0.3509,-0.3514,-0.3501,-0.3564,-0.3543,-0.3551,-0.3577,-0.3639,-0.3643,-0.3647,-0.3676,-0.3684,-0.3691,0,0,0,0,0,0,-0.3433,-0.3444,-0.3436,-0.3479,-0.3492,-0.3504,-0.3527,-0.3517,-0.3536,-0.3533,-0.3528,-0.3531,-0.3571,-0.3577,-0.3554,-0.3624,-0.3599,-0.3604,-0.3618,-0.3626,-0.3632,-0.3631,-0.3529,0,0,0,0,0,-0.3444,-0.3468,-0.3476,-0.3513,-0.3521,-0.3522,-0.3536,-0.3532,-0.3546,-0.3551,-0.3559,-0.3573,-0.3596,-0.3611,-0.3632,-0.3679,-0.3682,-0.37,-0.3707,-0.3712,-0.3717,-0.3743,-0.3751,-0.3661,-0.3661,-0.3661,0,0,-0.3468,-0.3477,-0.3492,-0.3519,-0.3529,-0.3555,-0.3527,-0.3555,-0.3574,-0.3555,-0.3592,-0.3597,-0.3613,-0.3655,-0.3674,-0.3662,-0.3742,-0.3716,-0.372,-0.3723,-0.3747,-0.3756,-0.3764,-0.3664,-0.3663,-0.3663,0,0,-0.3524,-0.3533,-0.3565,-0.3576,-0.3591,-0.3592,-0.3599,-0.3612,-0.3615,-0.3651,-0.3638,-0.366,-0.3699,-0.3711,-0.3722,-0.3782,-0.3772,-0.3789,-0.3822,-0.3847,-0.3855,-0.3861,-0.3883,-0.3891,-0.3794,-0.3794,-0.3794,0,-0.3552,-0.3589,-0.3583,-0.3612,-0.3625,-0.3608,-0.3641,-0.3652,-0.3674,-0.3683,-0.3668,-0.3717,-0.3727,-0.3772,-0.3787,-0.3796,-0.3805,-0.3788,-0.3854,-0.386,-0.3866,-0.3887,-0.3896,-0.3796,-0.3796,-0.3796,-0.3796,0,-0.3623,-0.3649,-0.3673,-0.3694,-0.3709,-0.374,-0.3739,-0.3755,-0.3749,-0.3752,-0.3789,-0.3799,-0.3823,-0.3833,-0.3828,-0.3877,-0.3869,-0.3854,-0.3829,-0.3877,-0.3897,-0.3905,-0.3799,-0.3799,-0.3798,-0.3798,0,0,-0.3699,-0.3716,-0.3726,-0.3735,-0.375,-0.377,-0.38,-0.3823,-0.3837,-0.3852,-0.3878,-0.3911,-0.3897,-0.391,-0.3906,-0.3928,-0.3976,-0.391,-0.3911,-0.3923,-0.4032,-0.4045,-0.4054,-0.3968,-0.397,-0.3971,-0.4031,0,-0.3757,-0.381,-0.3805,-0.3855,-0.3879,-0.3863,-0.389,-0.3902,-0.3905,-0.3926,-0.3929,-0.3953,-0.3933,-0.394,-0.3961,-0.3966,-0.3998,-0.3961,-0.3993,-0.3994,-0.3991,-0.4064,-0.4077,-0.4134,-0.4039,-0.404,-0.4041,0,-0.3832,-0.385,-0.3902,-0.3914,-0.3924,-0.3948,-0.3968,-0.3988,-0.4002,-0.4002,-0.4016,-0.4008,-0.4039,-0.4012,-0.4054,-0.4029,-0.4041,-0.4045,-0.4048,-0.4052,-0.4022,-0.4072,-0.4152,-0.4161,-0.4053,-0.4053,-0.4052,0,-0.3885,-0.3921,-0.3957,-0.3966,-0.398,-0.3997,-0.4004,-0.4016,-0.403,-0.4048,-0.4057,-0.4078,-0.409,-0.4106,-0.4104,-0.4084,-0.4148,-0.412,-0.415,-0.415,-0.4165,-0.4165,-0.425,-0.4171,-0.4171,-0.417,-0.417,0,-0.3951,-0.3984,-0.3981,-0.4004,-0.404,-0.4034,-0.407,-0.4075,-0.4086,-0.4109,-0.4096,-0.4119,-0.4114,-0.4136,-0.4134,-0.417,-0.4175,-0.4177,-0.4177,-0.4179,-0.4179,-0.4188,-0.4185,-0.4173,-0.4172,-0.4172,-0.4171,0,-0.4016,-0.4016,-0.4054,-0.4064,-0.4068,-0.4094,-0.4103,-0.4124,-0.4125,-0.4155,-0.4162,-0.4164,-0.4189,-0.4188,-0.4217,-0.4216,-0.426,-0.4255,-0.4256,-0.4255,-0.4285,-0.4283,-0.4381,-0.4394,-0.4305,-0.4306,-0.4307,0,-0.406,-0.4084,-0.4097,-0.4112,-0.412,-0.4143,-0.4157,-0.4152,-0.4167,-0.4184,-0.4204,-0.4228,-0.4247,-0.4288,-0.4292,-0.4314,-0.431,-0.4343,-0.4313,-0.4315,-0.4312,-0.4311,-0.4314,-0.4349,-0.435,-0.4351,-0.4351,0,-0.4137,-0.4135,-0.4156,-0.4176,-0.4193,-0.4209,-0.4224,-0.4236,-0.4233,-0.425,-0.4276,-0.4291,-0.432,-0.4344,-0.4365,-0.4372,-0.4362,-0.436,-0.4369,-0.4372,-0.4373,-0.4374,-0.4273,-0.4359,-0.4358,-0.4357,-0.4357,-0.4357,-0.4193,-0.4215,-0.4227,-0.4251,-0.4261,-0.4275,-0.4295,-0.4299,-0.432,-0.4344,-0.4339,-0.4368,-0.4381,-0.4408,-0.4417,-0.4439,-0.4428,-0.4439,-0.4443,-0.4446,-0.445,-0.4368,-0.4443,-0.4443,-0.4442,-0.4442,-0.4442,0,-0.4271,-0.4278,-0.4299,-0.432,-0.4339,-0.4326,-0.4341,-0.4358,-0.4383,-0.4396,-0.4415,-0.4444,-0.4468,-0.4474,-0.4496,-0.4513,-0.4509,-0.4519,-0.4519,-0.4521,-0.4458,-0.445,-0.4523,-0.4523,-0.4522,-0.4522,-0.4522,-0.4522,-0.4313,-0.435,-0.4349,-0.4391,-0.4397,-0.4425,-0.4435,-0.4448,-0.4458,-0.4492,-0.4511,-0.4515,-0.4525,-0.4548,-0.4569,-0.457,-0.4579,-0.4592,-0.4591,-0.4533,-0.4525,-0.4518,-0.4509,-0.4594,-0.4594,-0.4652,-0.4653,-0.4653]},{"header":{"parameterUnit":"m.s-1","parameterCategory":1,"la1":30.2991,"la2":30.254,"lo1":-89.0895,"lo2":-89.0444,"dy":0.0017,"dx":0.0017,"nx":28,"ny":28,"refTime":"2024-04-11T09:00:00:Z","depth":0,"parameterNumber":3,"parameterNumberName":"V-component_of_WINDS"},"data":[0,0,0,0,0,0,0,0,0,0,0,0,0,0,0,0,0,0,0,0,0,0,0,0,0,0,0,0,0,0,0,0,0,0,0,0,0,0,0,0,0,0,0,0,0,0,0,0,0,0,0,0,0,0,0,0,0,0,-2.1798,-2.18,0,-2.1937,-2.1938,-2.194,-2.1958,-2.1956,-2.1955,-2.1954,-2.2095,-2.21,-2.2105,0,0,0,0,0,0,0,0,0,0,0,0,0,-2.1549,-2.1554,-2.1798,-2.18,-2.1801,-2.1936,-2.1938,-2.194,-2.1958,-2.1956,-2.1955,-2.1953,-2.2094,-2.21,-2.2106,0,0,0,0,0,0,0,0,0,0,0,0,0,-2.1669,-2.1555,-2.1798,-2.1827,-2.1831,-2.1936,-2.1938,-2.1941,-2.1958,-2.1956,-2.1954,-2.1953,-2.2092,-2.2099,-2.2106,-2.2192,0,0,-2.2129,-2.2133,0,0,0,0,0,0,0,0,-2.1663,-2.1679,-2.1821,-2.1825,-2.1829,-2.1928,-2.1902,-2.2025,-2.1959,-2.191,-2.1954,-2.1952,-2.2041,-2.2053,-2.2083,-2.2199,-2.2205,-2.213,-2.2135,-2.2138,-2.214,0,0,0,0,0,0,0,-2.1654,-2.1673,-2.1853,-2.1823,-2.1828,-2.1833,-2.1848,-2.1926,-2.1985,-2.1914,-2.1916,-2.1932,-2.2043,-2.2076,-2.2086,-2.2207,-2.213,-2.2136,-2.2141,-2.2144,-2.2401,-2.2403,0,0,0,0,0,0,-2.1641,-2.1666,-2.1848,-2.1857,-2.1739,-2.1839,-2.1856,-2.1898,-2.1984,-2.1995,-2.1933,-2.1932,-2.2064,-2.2078,-2.2092,-2.2198,-2.2138,-2.2145,-2.2149,-2.2399,-2.2402,-2.2404,0,0,0,0,0,0,-2.1635,-2.1657,-2.1843,-2.1762,-2.1786,-2.1845,-2.1893,-2.1902,-2.1935,-2.1999,-2.2009,-2.1956,-2.2063,-2.2081,-2.2167,-2.2204,-2.2148,-2.2155,-2.2396,-2.24,-2.2403,-2.2412,0,0,0,0,0,0,-2.1628,-2.1655,-2.1688,-2.1762,-2.179,-2.1916,-2.1895,-2.1906,-2.1948,-2.1947,-2.2023,-2.2033,-2.2063,-2.2156,-2.2175,-2.2213,-2.2161,-2.2393,-2.2398,-2.2402,-2.2409,-2.2416,-2.2421,0,0,0,0,0,-2.1619,-2.1685,-2.1689,-2.1711,-2.1833,-2.1918,-2.1934,-2.1967,-2.195,-2.1984,-2.2026,-2.2031,-2.2196,-2.2165,-2.2186,-2.2227,-2.2391,-2.2396,-2.2402,-2.2406,-2.2414,-2.2421,0,0,0,0,0,0,-2.1613,-2.1695,-2.1701,-2.1793,-2.1848,-2.1921,-2.1965,-2.1974,-2.2036,-2.2033,-2.2071,-2.2088,-2.2173,-2.2208,-2.2172,-2.2315,-2.2292,-2.2302,-2.2288,-2.2297,-2.2303,-2.2292,-2.2167,0,0,0,0,0,-2.1622,-2.1684,-2.1753,-2.1827,-2.1855,-2.1905,-2.1944,-2.1964,-2.2023,-2.2047,-2.2094,-2.2151,-2.2217,-2.2259,-2.2322,-2.2414,-2.2431,-2.2453,-2.2459,-2.2464,-2.2472,-2.2524,-2.2534,-2.2422,-2.2421,-2.2421,0,0,-2.1642,-2.1694,-2.1731,-2.1827,-2.1873,-2.1937,-2.1925,-2.1993,-2.2041,-2.2057,-2.2142,-2.2179,-2.2245,-2.2335,-2.2377,-2.2367,-2.2507,-2.247,-2.2474,-2.2479,-2.253,-2.2541,-2.255,-2.2425,-2.2424,-2.2424,0,0,-2.171,-2.1756,-2.1824,-2.187,-2.1939,-2.1972,-2.1988,-2.206,-2.2085,-2.2171,-2.2184,-2.2242,-2.2353,-2.24,-2.2438,-2.2525,-2.2533,-2.2545,-2.2577,-2.2628,-2.2636,-2.2645,-2.2676,-2.2687,-2.2553,-2.2553,-2.2553,0,-2.1726,-2.1823,-2.1857,-2.1925,-2.1967,-2.1985,-2.2054,-2.2097,-2.2183,-2.2211,-2.2199,-2.234,-2.2386,-2.2487,-2.2508,-2.2539,-2.2558,-2.2537,-2.2632,-2.2641,-2.2649,-2.268,-2.2691,-2.2554,-2.2554,-2.2554,-2.2553,0,-2.184,-2.1907,-2.1953,-2.2036,-2.2083,-2.2151,-2.2195,-2.2239,-2.2256,-2.229,-2.2377,-2.2433,-2.2508,-2.2534,-2.255,-2.2638,-2.263,-2.2625,-2.2603,-2.266,-2.269,-2.2702,-2.2555,-2.2555,-2.2555,-2.2554,0,0,-2.1909,-2.201,-2.2026,-2.2064,-2.2142,-2.2195,-2.2264,-2.2338,-2.2375,-2.2433,-2.2492,-2.2586,-2.2582,-2.2626,-2.2648,-2.2692,-2.2758,-2.2682,-2.2684,-2.2694,-2.2859,-2.2862,-2.2875,-2.2763,-2.2766,-2.2768,-2.2853,0,-2.1987,-2.211,-2.2143,-2.2248,-2.2311,-2.2329,-2.2389,-2.2443,-2.2477,-2.2535,-2.2573,-2.2639,-2.2628,-2.2655,-2.2699,-2.2741,-2.2792,-2.2735,-2.2819,-2.2822,-2.2802,-2.2891,-2.2895,-2.2973,-2.2865,-2.2867,-2.2868,0,-2.2095,-2.2156,-2.2267,-2.2338,-2.2365,-2.2419,-2.2489,-2.2545,-2.2607,-2.2628,-2.2677,-2.2695,-2.2768,-2.2742,-2.2843,-2.2804,-2.284,-2.2866,-2.2869,-2.2879,-2.2849,-2.2903,-2.2999,-2.301,-2.2887,-2.2885,-2.2884,0,-2.2134,-2.2245,-2.2326,-2.2358,-2.2442,-2.2479,-2.2516,-2.2576,-2.2618,-2.268,-2.2708,-2.2777,-2.2815,-2.2868,-2.2905,-2.2882,-2.3003,-2.298,-2.3023,-2.3022,-2.3048,-2.3046,-2.3151,-2.3071,-2.307,-2.307,-2.307,0,-2.2219,-2.2286,-2.2345,-2.2395,-2.2471,-2.2508,-2.2582,-2.262,-2.2673,-2.2731,-2.275,-2.2804,-2.2848,-2.2908,-2.2937,-2.3017,-2.3033,-2.3053,-2.306,-2.3052,-2.3049,-2.3076,-2.3072,-2.3073,-2.3073,-2.3072,-2.3071,0,-2.2276,-2.2318,-2.2408,-2.248,-2.25,-2.2553,-2.2614,-2.2664,-2.2698,-2.2771,-2.279,-2.2845,-2.2916,-2.2958,-2.3047,-2.3067,-2.3155,-2.316,-2.3134,-2.3138,-2.3179,-2.3175,-2.3306,-2.3325,-2.3231,-2.3232,-2.3232,0,-2.2327,-2.238,-2.2458,-2.2498,-2.2535,-2.2599,-2.2643,-2.2681,-2.2725,-2.28,-2.2841,-2.2913,-2.2974,-2.3087,-2.3134,-2.3203,-2.321,-2.3251,-2.322,-2.321,-2.3211,-2.3208,-2.3213,-2.3256,-2.3257,-2.3258,-2.3258,0,-2.2414,-2.2432,-2.2494,-2.2564,-2.2616,-2.2672,-2.2728,-2.276,-2.2808,-2.2857,-2.293,-2.2977,-2.3069,-2.3141,-2.3214,-2.3252,-2.3264,-2.3268,-2.3281,-2.3274,-2.3257,-2.3267,-2.3149,-2.3265,-2.3264,-2.3263,-2.3263,-2.3263,-2.2471,-2.2518,-2.2581,-2.2649,-2.2696,-2.2748,-2.2798,-2.2839,-2.2901,-2.2979,-2.2998,-2.3075,-2.3136,-2.3236,-2.3275,-2.3336,-2.3329,-2.3349,-2.3354,-2.3359,-2.336,-2.3247,-2.335,-2.335,-2.3349,-2.3349,-2.3349,0,-2.2559,-2.26,-2.2663,-2.2741,-2.2795,-2.2801,-2.2864,-2.2908,-2.2976,-2.3032,-2.3091,-2.3176,-2.3246,-2.3299,-2.3371,-2.341,-2.3417,-2.3427,-2.3425,-2.3434,-2.3362,-2.3343,-2.3421,-2.3421,-2.3421,-2.3421,-2.342,-2.342,-2.2611,-2.2692,-2.2718,-2.2822,-2.2863,-2.2939,-2.2974,-2.3023,-2.3068,-2.3162,-2.322,-2.3254,-2.331,-2.3386,-2.345,-2.3464,-2.349,-2.35,-2.3514,-2.3447,-2.3439,-2.3431,-2.3414,-2.3505,-2.3505,-2.3581,-2.3582,-2.3583]}]]